• In Österreich
  • Länderverzeichnis
  • Für 7 Tage
  • Wassertemperatur
  • Satellitenkarten
  • Wetterkarte
  • News
  • Widgets
  • user-avatar
    Anmelden

    Stündliche Wetter Shaki

    Heute, 22 Oktober, Montag

    Zeit Temperatur Niederschläge Wind Luftdruck Luftfeuchtigkeit
    00:00 +19°C° 0 mm 2 m/S 735 mmHg 41%
    01:00 +20°C° 0 mm 1 m/S 735 mmHg 42%
    02:00 +19°C° 0 mm 1 m/S 735 mmHg 43%
    03:00 +19°C° 0 mm 1 m/S 735 mmHg 45%
    04:00 +19°C° 0.1 mm 1 m/S 735 mmHg 47%
    05:00 +19°C° 0.1 mm 1 m/S 735 mmHg 49%
    06:00 +17°C° 0.1 mm 0 m/S 735 mmHg 50%
    07:00 +20°C° 0.1 mm 1 m/S 735 mmHg 50%
    08:00 +21°C° 0.1 mm 1 m/S 735 mmHg 49%
    09:00 +21°C° 0.1 mm 1 m/S 736 mmHg 48%
    10:00 +21°C° 0 mm 2 m/S 735 mmHg 46%
    11:00 +23°C° 0 mm 2 m/S 735 mmHg 44%
    12:00 +24°C° 0 mm 3 m/S 735 mmHg 42%
    13:00 +24°C° 0 mm 3 m/S 735 mmHg 42%
    14:00 +24°C° 0 mm 3 m/S 735 mmHg 42%
    15:00 +24°C° 0 mm 3 m/S 735 mmHg 43%
    16:00 +22°C° 0 mm 3 m/S 735 mmHg 46%
    17:00 +21°C° 0 mm 3 m/S 735 mmHg 50%
    18:00 +19°C° 0 mm 2 m/S 735 mmHg 53%
    19:00 +19°C° 0 mm 2 m/S 735 mmHg 53%
    20:00 +18°C° 0 mm 2 m/S 736 mmHg 53%
    21:00 +18°C° 0 mm 2 m/S 736 mmHg 53%
    22:00 +18°C° 0 mm 2 m/S 736 mmHg 52%
    23:00 +18°C° 0 mm 2 m/S 736 mmHg 52%

    Morgen, 23 Oktober, Dienstag

    Zeit Temperatur Niederschläge Wind Luftdruck Luftfeuchtigkeit
    00:00 +17°C° 0 mm 2 m/S 736 mmHg 51%
    01:00 +17°C° 0 mm 2 m/S 736 mmHg 51%
    02:00 +17°C° 0 mm 2 m/S 736 mmHg 50%
    03:00 +17°C° 0 mm 2 m/S 736 mmHg 49%
    04:00 +17°C° 0 mm 2 m/S 736 mmHg 49%
    05:00 +16°C° 0 mm 2 m/S 736 mmHg 48%
    06:00 +16°C° 0 mm 2 m/S 735 mmHg 48%
    07:00 +18°C° 0 mm 2 m/S 736 mmHg 44%
    08:00 +19°C° 0 mm 3 m/S 736 mmHg 40%
    09:00 +21°C° 0 mm 3 m/S 736 mmHg 37%
    10:00 +22°C° 0 mm 3 m/S 736 mmHg 35%
    11:00 +24°C° 0 mm 3 m/S 735 mmHg 33%
    12:00 +25°C° 0 mm 3 m/S 735 mmHg 31%
    13:00 +25°C° 0 mm 3 m/S 735 mmHg 30%
    14:00 +25°C° 0 mm 3 m/S 734 mmHg 30%
    15:00 +25°C° 0 mm 3 m/S 734 mmHg 30%
    16:00 +24°C° 0 mm 2 m/S 734 mmHg 32%
    17:00 +21°C° 0 mm 2 m/S 734 mmHg 35%
    18:00 +20°C° 0 mm 1 m/S 734 mmHg 37%
    19:00 +20°C° 0 mm 1 m/S 734 mmHg 36%
    20:00 +19°C° 0 mm 1 m/S 734 mmHg 35%
    21:00 +19°C° 0 mm 1 m/S 735 mmHg 35%
    22:00 +19°C° 0 mm 1 m/S 734 mmHg 37%
    23:00 +18°C° 0 mm 1 m/S 734 mmHg 38%

    übermorgen, 24 Oktober, Mittwoch

    Zeit Temperatur Niederschläge Wind Luftdruck Luftfeuchtigkeit
    00:00 +17°C° 0 mm 2 m/S 734 mmHg 40%
    01:00 +18°C° 0 mm 1 m/S 734 mmHg 43%
    02:00 +18°C° 0 mm 1 m/S 733 mmHg 46%
    03:00 +18°C° 0 mm 1 m/S 733 mmHg 48%
    04:00 +16°C° 0 mm 1 m/S 733 mmHg 50%
    05:00 +16°C° 0 mm 2 m/S 733 mmHg 51%
    06:00 +16°C° 0 mm 2 m/S 732 mmHg 53%
    07:00 +17°C° 0 mm 2 m/S 732 mmHg 48%
    08:00 +19°C° 0 mm 2 m/S 732 mmHg 43%
    09:00 +21°C° 0 mm 2 m/S 732 mmHg 38%
    10:00 +23°C° 0 mm 2 m/S 732 mmHg 36%
    11:00 +24°C° 0 mm 3 m/S 731 mmHg 34%
    12:00 +25°C° 0 mm 3 m/S 730 mmHg 32%
    13:00 +25°C° 0 mm 3 m/S 730 mmHg 32%
    14:00 +25°C° 0 mm 3 m/S 729 mmHg 32%
    15:00 +25°C° 0 mm 3 m/S 729 mmHg 32%
    16:00 +24°C° 0 mm 2 m/S 728 mmHg 36%
    17:00 +21°C° 0 mm 2 m/S 728 mmHg 40%
    18:00 +20°C° 0 mm 2 m/S 728 mmHg 44%
    19:00 +19°C° 0 mm 2 m/S 728 mmHg 45%
    20:00 +19°C° 0 mm 2 m/S 728 mmHg 46%
    21:00 +19°C° 0 mm 2 m/S 728 mmHg 47%
    22:00 +19°C° 0 mm 2 m/S 727 mmHg 47%
    23:00 +18°C° 0 mm 2 m/S 727 mmHg 48%

    25 Oktober, Donnerstag

    Zeit Temperatur Niederschläge Wind Luftdruck Luftfeuchtigkeit
    00:00 +18°C° 0 mm 2 m/S 727 mmHg 49%
    01:00 +18°C° 0 mm 3 m/S 726 mmHg 50%
    02:00 +18°C° 0 mm 3 m/S 726 mmHg 51%
    03:00 +17°C° 0 mm 3 m/S 725 mmHg 53%
    04:00 +17°C° 0 mm 3 m/S 725 mmHg 53%
    05:00 +17°C° 0 mm 3 m/S 725 mmHg 53%
    06:00 +17°C° 0 mm 3 m/S 725 mmHg 52%
    07:00 +19°C° 0 mm 4 m/S 725 mmHg 47%
    08:00 +21°C° 0 mm 4 m/S 725 mmHg 41%
    09:00 +23°C° 0 mm 5 m/S 725 mmHg 35%
    10:00 +25°C° 0 mm 5 m/S 724 mmHg 33%
    11:00 +26°C° 0 mm 5 m/S 724 mmHg 31%
    12:00 +28°C° 0 mm 6 m/S 723 mmHg 29%
    13:00 +28°C° 0 mm 5 m/S 723 mmHg 28%
    14:00 +28°C° 0 mm 4 m/S 722 mmHg 28%
    15:00 +28°C° 0 mm 4 m/S 721 mmHg 28%
    16:00 +26°C° 0 mm 3 m/S 721 mmHg 31%
    17:00 +25°C° 0 mm 3 m/S 721 mmHg 34%
    18:00 +22°C° 0 mm 3 m/S 721 mmHg 37%
    19:00 +22°C° 0 mm 3 m/S 721 mmHg 38%
    20:00 +22°C° 0 mm 3 m/S 722 mmHg 38%
    21:00 +23°C° 0 mm 2 m/S 722 mmHg 39%
    22:00 +21°C° 0 mm 3 m/S 723 mmHg 42%
    23:00 +20°C° 0 mm 3 m/S 723 mmHg 44%

    26 Oktober, Freitag

    Zeit Temperatur Niederschläge Wind Luftdruck Luftfeuchtigkeit
    00:00 +19°C° 0 mm 4 m/S 724 mmHg 47%
    01:00 +18°C° 0 mm 4 m/S 724 mmHg 49%
    02:00 +17°C° 0 mm 4 m/S 725 mmHg 51%
    03:00 +15°C° 0 mm 4 m/S 725 mmHg 54%
    04:00 +15°C° 0.1 mm 4 m/S 725 mmHg 56%
    05:00 +14°C° 0.1 mm 5 m/S 726 mmHg 59%
    06:00 +14°C° 0.1 mm 5 m/S 726 mmHg 61%
    07:00 +14°C° 0.3 mm 5 m/S 727 mmHg 61%
    08:00 +15°C° 0.3 mm 5 m/S 728 mmHg 62%
    09:00 +15°C° 0.3 mm 5 m/S 728 mmHg 62%
    10:00 +15°C° 0.9 mm 5 m/S 729 mmHg 65%
    11:00 +14°C° 0.9 mm 5 m/S 729 mmHg 68%
    12:00 +14°C° 0.9 mm 5 m/S 729 mmHg 70%
    13:00 +14°C° 1.8 mm 4 m/S 729 mmHg 70%
    14:00 +14°C° 1.8 mm 3 m/S 729 mmHg 69%
    15:00 +13°C° 1.8 mm 3 m/S 729 mmHg 69%
    16:00 +13°C° 0.7 mm 3 m/S 730 mmHg 68%
    17:00 +13°C° 0.7 mm 3 m/S 731 mmHg 66%
    18:00 +13°C° 0.7 mm 4 m/S 732 mmHg 65%
    19:00 +12°C° 0 mm 4 m/S 733 mmHg 62%
    20:00 +11°C° 0 mm 4 m/S 733 mmHg 59%
    21:00 +10°C° 0 mm 5 m/S 734 mmHg 56%
    22:00 +9°C° 0 mm 5 m/S 734 mmHg 52%
    23:00 +10°C° 0 mm 4 m/S 735 mmHg 48%

    27 Oktober, Samstag

    Zeit Temperatur Niederschläge Wind Luftdruck Luftfeuchtigkeit
    00:00 +8°C° 0 mm 4 m/S 735 mmHg 43%
    01:00 +8°C° 0 mm 5 m/S 736 mmHg 44%
    02:00 +8°C° 0 mm 5 m/S 736 mmHg 45%
    03:00 +8°C° 0 mm 5 m/S 737 mmHg 46%
    04:00 +8°C° 0 mm 5 m/S 738 mmHg 48%
    05:00 +8°C° 0 mm 4 m/S 738 mmHg 49%
    06:00 +8°C° 0 mm 4 m/S 739 mmHg 51%
    07:00 +10°C° 0 mm 4 m/S 740 mmHg 49%
    08:00 +12°C° 0 mm 4 m/S 741 mmHg 48%
    09:00 +13°C° 0 mm 4 m/S 741 mmHg 47%
    10:00 +14°C° 0 mm 4 m/S 741 mmHg 46%
    11:00 +15°C° 0 mm 4 m/S 741 mmHg 44%
    12:00 +16°C° 0 mm 5 m/S 742 mmHg 42%
    13:00 +17°C° 0 mm 4 m/S 742 mmHg 41%
    14:00 +17°C° 0 mm 3 m/S 742 mmHg 41%
    15:00 +18°C° 0 mm 3 m/S 742 mmHg 40%
    16:00 +16°C° 0 mm 2 m/S 743 mmHg 41%
    17:00 +15°C° 0 mm 2 m/S 744 mmHg 43%
    18:00 +13°C° 0 mm 2 m/S 744 mmHg 45%
    19:00 +13°C° 0 mm 2 m/S 745 mmHg 45%
    20:00 +12°C° 0 mm 2 m/S 745 mmHg 45%
    21:00 +11°C° 0 mm 3 m/S 746 mmHg 45%
    22:00 +10°C° 0 mm 2 m/S 746 mmHg 49%
    23:00 +10°C° 0 mm 2 m/S 746 mmHg 53%

    28 Oktober, Sonntag

    Zeit Temperatur Niederschläge Wind Luftdruck Luftfeuchtigkeit
    00:00 +10°C° 0 mm 2 m/S 746 mmHg 57%
    01:00 +9°C° 0 mm 2 m/S 746 mmHg 58%
    02:00 +9°C° 0 mm 2 m/S 746 mmHg 59%
    03:00 +10°C° 0 mm 1 m/S 746 mmHg 60%
    04:00 +10°C° 0 mm 1 m/S 746 mmHg 60%
    05:00 +10°C° 0 mm 1 m/S 746 mmHg 60%
    06:00 +10°C° 0 mm 1 m/S 746 mmHg 61%
    07:00 +11°C° 0 mm 1 m/S 746 mmHg 59%
    08:00 +13°C° 0 mm 1 m/S 746 mmHg 57%
    09:00 +14°C° 0 mm 1 m/S 746 mmHg 56%
    10:00 +15°C° 0 mm 1 m/S 746 mmHg 54%
    11:00 +16°C° 0 mm 1 m/S 745 mmHg 52%
    12:00 +17°C° 0 mm 2 m/S 745 mmHg 51%
    13:00 +18°C° 0 mm 1 m/S 745 mmHg 50%
    14:00 +18°C° 0 mm 1 m/S 744 mmHg 49%
    15:00 +19°C° 0 mm 1 m/S 744 mmHg 49%
    16:00 +16°C° 0 mm 1 m/S 744 mmHg 52%
    17:00 +15°C° 0 mm 1 m/S 744 mmHg 54%
    18:00 +14°C° 0 mm 1 m/S 745 mmHg 57%
    19:00 +14°C° 0 mm 1 m/S 745 mmHg 58%
    20:00 +13°C° 0 mm 1 m/S 745 mmHg 59%
    21:00 +13°C° 0 mm 2 m/S 745 mmHg 59%
    22:00 +13°C° 0 mm 1 m/S 745 mmHg 60%
    23:00 +13°C° 0 mm 1 m/S 745 mmHg 61%
    Mehr zeigen